Location: Most
(50.5330°N, 13.6500°E)
Time: 12:57:56
(UTC+01:00)

N. Korean satellite - Pass Details

Date: 29 October 2021
Orbit: 446 x 495 km, 97.3° (Epoch: 06 December)

Event Time Altitude Azimuth Distance (km) Brightness Sun altitude
Rises 05:11:12 0° 32° (NNE) 2,592 10.8 -25.9°
Reaches altitude 10° 05:14:33 10° 65° (ENE) 1,693 10.3 -25.3°
Maximum altitude 05:15:57 12° 88° (E) 1,573 10.1 -25.1°
Drops below altitude 10° 05:17:21 10° 110° (ESE) 1,679 10.1 -24.9°
Sets 05:20:36 0° 144° (SE) 2,540 10.6 -24.4°
